TimeAKST,TemperatureF,Dew PointF,Humidity,Sea Level PressureIn,VisibilityMPH,Wind Direction,Wind SpeedMPH,Gust SpeedMPH,PrecipitationIn,Events,Conditions,WindDirDegrees,DateUTC
12:16 AM,-4.0,-9.4,78,29.66,10.0,NE,5.8,-,N/A,,Clear,50,2014-01-01 09:16:00
12:36 AM,1.4,-4.0,78,29.65,10.0,NNE,4.6,-,N/A,,Clear,30,2014-01-01 09:36:00
12:56 AM,8.6,5.0,85,29.64,10.0,NNE,6.9,-,N/A,,Clear,20,2014-01-01 09:56:00
1:16 AM,8.6,5.0,85,29.64,10.0,NNE,5.8,-,N/A,,Clear,20,2014-01-01 10:16:00
1:36 AM,8.6,5.0,85,29.63,10.0,NNE,6.9,-,N/A,,Clear,20,2014-01-01 10:36:00
1:56 AM,6.8,1.4,79,29.62,10.0,North,8.1,-,N/A,,Clear,10,2014-01-01 10:56:00
2:16 AM,6.8,1.4,79,29.62,10.0,North,8.1,-,N/A,,Clear,10,2014-01-01 11:16:00
2:36 AM,3.2,3.2,100,29.61,10.0,NNE,6.9,-,N/A,,Clear,30,2014-01-01 11:36:00
2:56 AM,-5.8,-16.6,60,29.60,10.0,NE,6.9,-,N/A,,Clear,40,2014-01-01 11:56:00
3:16 AM,-2.2,-7.6,78,29.59,10.0,NNE,6.9,-,N/A,,Clear,20,2014-01-01 12:16:00
3:36 AM,-0.4,-0.4,100,29.58,10.0,NE,10.4,-,N/A,,Clear,40,2014-01-01 12:36:00
3:56 AM,-7.6,-16.6,65,29.58,10.0,NE,12.7,-,N/A,,Clear,50,2014-01-01 12:56:00
4:16 AM,-5.8,-9.4,84,29.57,10.0,NE,11.5,-,N/A,,Clear,50,2014-01-01 13:16:00
4:36 AM,-7.6,-14.8,71,29.57,10.0,NE,11.5,-,N/A,,Clear,50,2014-01-01 13:36:00
4:56 AM,-4.0,-4.0,100,29.57,10.0,ENE,9.2,-,N/A,,Clear,60,2014-01-01 13:56:00
5:16 AM,-0.4,-2.2,92,29.56,10.0,ENE,4.6,-,N/A,,Clear,60,2014-01-01 14:16:00
5:36 AM,-0.4,-5.8,78,29.55,10.0,NE,3.5,-,N/A,,Clear,40,2014-01-01 14:36:00
5:56 AM,-2.2,-7.6,78,29.55,10.0,East,5.8,-,N/A,,Clear,80,2014-01-01 14:56:00
6:16 AM,-2.2,-5.8,85,29.54,10.0,ENE,5.8,-,N/A,,Clear,60,2014-01-01 15:16:00
6:36 AM,-2.2,-7.6,78,29.53,10.0,NE,5.8,-,N/A,,Clear,40,2014-01-01 15:36:00
6:56 AM,-0.4,-2.2,92,29.52,10.0,NNE,5.8,-,N/A,,Clear,20,2014-01-01 15:56:00
7:16 AM,1.4,-2.2,85,29.52,10.0,North,9.2,-,N/A,,Clear,10,2014-01-01 16:16:00
7:36 AM,3.2,-2.2,78,29.51,10.0,North,9.2,-,N/A,,Clear,360,2014-01-01 16:36:00
7:56 AM,6.8,3.2,85,29.50,10.0,North,12.7,-,N/A,,Clear,360,2014-01-01 16:56:00
8:16 AM,8.6,5.0,85,29.50,10.0,North,12.7,-,N/A,,Clear,360,2014-01-01 17:16:00
8:36 AM,8.6,5.0,85,29.49,10.0,North,11.5,-,N/A,,Clear,360,2014-01-01 17:36:00
8:56 AM,8.6,6.8,92,29.48,10.0,North,13.8,-,N/A,,Clear,360,2014-01-01 17:56:00
9:16 AM,8.6,6.8,92,29.48,10.0,North,11.5,-,N/A,,Clear,360,2014-01-01 18:16:00
9:36 AM,8.6,5.0,85,29.48,10.0,North,13.8,-,N/A,,Clear,360,2014-01-01 18:36:00
9:56 AM,8.6,5.0,85,29.47,10.0,North,11.5,-,N/A,,Clear,360,2014-01-01 18:56:00
10:16 AM,6.8,3.2,85,29.47,10.0,North,11.5,-,N/A,,Clear,360,2014-01-01 19:16:00
10:36 AM,8.6,5.0,85,29.47,10.0,North,10.4,-,N/A,,Clear,350,2014-01-01 19:36:00
10:56 AM,8.6,5.0,85,29.46,10.0,NNW,11.5,-,N/A,,Clear,340,2014-01-01 19:56:00
11:16 AM,8.6,5.0,85,29.46,10.0,North,12.7,-,N/A,,Clear,350,2014-01-01 20:16:00
11:36 AM,6.8,3.2,85,29.46,10.0,North,11.5,-,N/A,,Clear,360,2014-01-01 20:36:00
11:56 AM,8.6,3.2,79,29.45,10.0,North,10.4,-,N/A,,Clear,350,2014-01-01 20:56:00
12:16 PM,8.6,3.2,79,29.45,10.0,North,12.7,-,N/A,,Clear,360,2014-01-01 21:16:00
12:36 PM,8.6,5.0,85,29.45,10.0,North,10.4,-,N/A,,Clear,10,2014-01-01 21:36:00
12:56 PM,6.8,3.2,85,29.44,10.0,North,6.9,-,N/A,,Clear,350,2014-01-01 21:56:00
1:16 PM,5.0,1.4,85,29.44,10.0,NNW,8.1,-,N/A,,Clear,340,2014-01-01 22:16:00
1:36 PM,1.4,-0.4,92,29.44,0.8,NE,8.1,-,N/A,,Unknown,50,2014-01-01 22:36:00
1:56 PM,1.4,-2.2,85,29.44,5.0,NNE,10.4,-,N/A,,Clear,20,2014-01-01 22:56:00
2:16 PM,1.4,-2.2,85,29.44,10.0,NNE,11.5,-,N/A,,Clear,20,2014-01-01 23:16:00
2:36 PM,-0.4,-5.8,78,29.44,10.0,NNE,10.4,-,N/A,,Clear,30,2014-01-01 23:36:00
2:56 PM,1.4,-2.2,85,29.43,10.0,North,9.2,-,N/A,,Clear,350,2014-01-01 23:56:00
3:16 PM,5.0,3.2,92,29.43,10.0,North,8.1,-,N/A,,Clear,350,2014-01-02 00:16:00
3:36 PM,6.8,3.2,85,29.43,10.0,NNW,8.1,-,N/A,,Clear,340,2014-01-02 00:36:00
3:56 PM,1.4,-4.0,78,29.43,10.0,NE,5.8,-,N/A,,Clear,50,2014-01-02 00:56:00
4:16 PM,-0.4,-2.2,92,29.43,10.0,North,4.6,-,N/A,,Clear,10,2014-01-02 01:16:00
4:36 PM,1.4,-2.2,85,29.43,10.0,Calm,Calm,-,N/A,,Clear,0,2014-01-02 01:36:00
4:56 PM,1.4,-4.0,78,29.44,10.0,East,6.9,-,N/A,,Clear,80,2014-01-02 01:56:00
5:16 PM,-2.2,-9.4,71,29.44,10.0,East,5.8,-,N/A,,Clear,90,2014-01-02 02:16:00
5:56 PM,1.4,-7.6,66,29.45,10.0,Calm,Calm,-,N/A,,Clear,0,2014-01-02 02:56:00
6:16 PM,3.2,-0.4,85,29.45,10.0,Calm,Calm,-,N/A,,Clear,0,2014-01-02 03:16:00
6:36 PM,-0.4,-11.2,60,29.45,10.0,North,3.5,-,N/A,,Clear,360,2014-01-02 03:36:00
6:56 PM,-0.4,-9.4,66,29.45,10.0,North,3.5,-,N/A,,Clear,10,2014-01-02 03:56:00
7:16 PM,-5.8,-9.4,84,29.45,10.0,ENE,5.8,-,N/A,,Clear,60,2014-01-02 04:16:00
7:36 PM,-5.8,-16.6,60,29.46,10.0,ESE,5.8,-,N/A,,Clear,120,2014-01-02 04:36:00
7:56 PM,-2.2,-5.8,85,29.46,10.0,SE,3.5,-,N/A,,Clear,130,2014-01-02 04:56:00
8:16 PM,-0.4,-5.8,78,29.46,10.0,SE,5.8,-,N/A,,Clear,140,2014-01-02 05:16:00
8:36 PM,-0.4,-4.0,85,29.46,10.0,SE,5.8,-,N/A,,Clear,140,2014-01-02 05:36:00
8:56 PM,-0.4,-5.8,78,29.47,10.0,East,6.9,-,N/A,,Clear,100,2014-01-02 05:56:00
9:16 PM,-4.0,-9.4,78,29.48,10.0,SE,10.4,-,N/A,,Clear,130,2014-01-02 06:16:00
9:36 PM,1.4,1.4,100,29.48,10.0,SSE,11.5,-,N/A,,Clear,160,2014-01-02 06:36:00
9:56 PM,3.2,-0.4,85,29.49,10.0,South,11.5,-,N/A,,Clear,170,2014-01-02 06:56:00
10:16 PM,3.2,-0.4,85,29.49,10.0,South,10.4,-,N/A,,Clear,170,2014-01-02 07:16:00
10:36 PM,3.2,-0.4,85,29.49,10.0,South,10.4,-,N/A,,Clear,170,2014-01-02 07:36:00
10:56 PM,1.4,-2.2,85,29.50,10.0,South,9.2,-,N/A,,Clear,170,2014-01-02 07:56:00
11:16 PM,1.4,-2.2,85,29.51,10.0,SSE,6.9,-,N/A,,Clear,160,2014-01-02 08:16:00
11:36 PM,1.4,-2.2,85,29.52,10.0,SSE,6.9,-,N/A,,Clear,160,2014-01-02 08:36:00
11:56 PM,3.2,-0.4,85,29.53,10.0,SSE,3.5,-,N/A,,Clear,160,2014-01-02 08:56:00